Location: Campillo
(40.8621°N, 4.2488°W)
Time: 11:53:22
(UTC+00:00)

ATLAS 2AS CENTAUR R/B - Pass Details

Date: 11 May 2021
Orbit: 949 x 1263 km, 63.7° (Epoch: 07 May)

Event Time Altitude Azimuth Distance (km) Brightness Sun altitude
Rises 21:23:09 0° 328° (NNW) 4,117 7.3 -19.0°
Reaches altitude 10° 21:26:26 10° 339° (NNW) 3,106 6.2 -19.4°
Maximum altitude 21:32:47 30° 38° (NE) 1,903 4.1 -20.2°
Enters shadow 21:37:04 17° 88° (E) 2,460 4.3 -20.8°
